Hourly Data Report for September 04, 2017

All times are specified in Local Standard Time (LST). Add 1 hour to adjust for Daylight Saving Time where and when it is observed.

GRISE FIORD CLIMATE
NUNAVUT

76°25'22.040" N
82°54'08.020" W
44.50 m
2402351
71971
NGC

Download Data

Hourly Data (September 2017)
Hourly Data Report for September 4, 2017
Temp Definition
°C
Dew Point Temp Definition
°C
Rel Hum Definition
%
Wind Dir Definition
10's deg

Wind Spd Definition
km/h
Visibility Definition
km
Stn Press Definition
kPa
Hmdx Definition


Wind Chill Definition


Weather Definition


TIME
00:00 -3.0 -10.6 56 6 28   100.73   -10 LegendNANA
01:00 -2.9 -10.6 55 4 32   100.74   -10 LegendNANA
02:00 -3.2 -10.7 56 4 27   100.82   -10 LegendNANA
03:00 -3.4 -10.9 56 3 25   100.81   -10 LegendNANA
04:00 -3.5 -10.9 56 2 26   100.86   -11 LegendNANA
05:00 -3.7 -11.1 56 4 12   100.89   -8 LegendNANA
06:00 -3.8 -10.8 58 2 7   100.92   -7 LegendNANA
07:00 -3.5 -10.3 59 6 16   100.91   -9 LegendNANA
08:00 -2.9 -8.9 63 29 13   100.90   -8 LegendNANA
09:00 -2.7 -9.2 61 30 10   100.91   -7 LegendNANA
10:00 -2.0 -8.7 60 31 17   100.89   -7 LegendNANA
11:00 -1.9 -8.6 60 32 15   100.89   -7 LegendNANA
12:00 -1.8 -8.6 60 32 5   100.89   -4 LegendNANA
13:00 -1.6 -8.0 61 33 7   100.88   -4 LegendNANA
14:00 -1.8 -8.7 59 33 11   100.89   -6 LegendNANA
15:00 -1.7 -8.8 58 33 10   100.89   -5 LegendNANA
16:00 -1.7 -9.1 57 33 9   100.91   -5 LegendNANA
17:00 -1.7 -8.7 59 33 8   100.91   -5 LegendNANA
18:00 -1.9 -9.2 57 36 15   100.89   -7 LegendNANA
19:00 -2.0 -9.2 58 33 15   100.88   -7 LegendNANA
20:00 -2.2 -9.0 60 35 20   100.88   -8 LegendNANA
21:00 -2.4 -8.8 61 35 17   100.87   -8 LegendNANA
22:00 -2.5 -8.7 63 36 8   100.88   -6 LegendNANA
23:00 -2.7 -9.5 59 1 18   100.84   -8 LegendNANA

Notes on Data Quality.

Legend

  • E = Estimated
  • M = Missing
  • NA = Not Available
  • ‡ = Partner data that is not subject to review by the National Climate Archives
Date modified: